User: anonymous   Login
Location: Unspecified
(42.0410°N, 0.0000°E)
Time: 13:58:29
(UTC+00:00)
Language:

ORBCOMM FM 117 - Orbit

View from above orbital plane
View from above orbital plane
View from above satellite
View from above satellite

Ground track
Ground track

The orbit is defined by the following mean orbital elements,

1 41188U          26087.70985427 +.00000000 +00000-0 +21172-3 0 00006
2 41188  47.0008 201.3189 0003585 205.3094 154.7617 14.58766807    04
Epoch (UTC): 28 March 2026 17:02:11
Eccentricity: 0.0003585
inclination: 47.0008°
perigee height: 695 km
apogee height: 700 km
right ascension of ascending node: 201.3189°
argument of perigee: 205.3094°
revolutions per day: 14.58766807
mean anomaly at epoch: 154.7617°

The dashed part of the orbit path shows where the satellite is in the earth's shadow,  

DLR